This is the latest recevied weather packets stored in our database for station/object SQ9MHX-13. If no packets are shown the sender has not sent any weather packets the latest 10 day(s).
| Time | Temp. | Humidity | Pressure | Rain* | Wind** | Luminosity | Snow |
|---|---|---|---|---|---|---|---|
| 1778005296 | 21.11° C | 29% | 948.5 hPa | - | 0 m/s | - | - |
| 1778004997 | 21.11° C | 27% | 948 hPa | - | 0 m/s | - | - |
| 1778003801 | 22.22° C | 27% | 947.2 hPa | - | 0 m/s | - | - |
| 1778003502 | 22.22° C | 27% | 946.9 hPa | - | 0 m/s | - | - |
| 1778002904 | 22.22° C | 26% | 946.2 hPa | - | 0 m/s | - | - |
| 1778002605 | 22.22° C | 27% | 946 hPa | - | 0 m/s | - | - |
| 1778002306 | 22.78° C | 25% | 945.5 hPa | - | 0 m/s | - | - |
| 1778002007 | 22.78° C | 26% | 945.4 hPa | - | 0 m/s | - | - |
| 1778001708 | 22.78° C | 24% | 945 hPa | - | 0 m/s | - | - |
| 1778001409 | 23.89° C | 24% | 944.4 hPa | - | 0 m/s | - | - |
| 1778001110 | 23.89° C | 22% | 944.2 hPa | - | 0 m/s | - | - |
| 1778000811 | 23.89° C | 22% | 943.6 hPa | - | 0 m/s | - | - |
| 1778000511 | 25° C | 20% | 943.3 hPa | - | 0 m/s | - | - |
| 1777999914 | 23.89° C | 24% | - | - | 0 m/s | - | - |
| 1777999614 | 23.89° C | 25% | 942.8 hPa | - | 0 m/s | - | - |
| 1777999016 | 25° C | 22% | 942.4 hPa | - | 0 m/s | - | - |
| 1777998417 | 25° C | 22% | 941.6 hPa | - | 0 m/s | - | - |
| 1777998118 | 25° C | 23% | 941 hPa | - | 0 m/s | - | - |
| 1777997819 | 26.11° C | 22% | 940.5 hPa | - | 0 m/s | - | - |
| 1777997220 | 26.11° C | 22% | 940.2 hPa | - | 0 m/s | - | - |
| 1777996921 | 26.11° C | 23% | 940.3 hPa | - | 0 m/s | - | - |
| 1777996322 | 26.11° C | 25% | 940.7 hPa | - | 0 m/s | - | - |
| 1777995425 | 25° C | 23% | 941.4 hPa | - | 0 m/s | - | - |
| 1777994826 | 25° C | 25% | 941.2 hPa | - | 0 m/s | - | - |
| 1777994228 | 25° C | 26% | 942.4 hPa | - | 0 m/s | - | - |
* Rain since midnight (hover to see other rain measurements)
** Current wind speed in m/s (hover to see current wind gust speed)